Previsão horária em Cuilapa

Hoje, 1 Outubro, Quinta-feira

Tempo Temperatura Precipitação Vento Pressão Humidade
00:00 +20°C° 0 mm 2 m/s 685 mmHg 94%
01:00 +20°C° 0 mm 2 m/s 685 mmHg 93%
02:00 +20°C° 0 mm 2 m/s 684 mmHg 93%
03:00 +20°C° 0 mm 2 m/s 684 mmHg 93%
04:00 +19°C° 0 mm 2 m/s 684 mmHg 93%
05:00 +19°C° 0 mm 2 m/s 684 mmHg 93%
06:00 +19°C° 0 mm 2 m/s 684 mmHg 93%
07:00 +21°C° 0 mm 2 m/s 685 mmHg 87%
08:00 +24°C° 0 mm 1 m/s 686 mmHg 80%
09:00 +26°C° 0 mm 1 m/s 686 mmHg 74%
10:00 +27°C° 0.3 mm 1 m/s 686 mmHg 75%
11:00 +28°C° 0.3 mm 1 m/s 686 mmHg 76%
12:00 +28°C° 0.3 mm 2 m/s 685 mmHg 77%
13:00 +27°C° 1.8 mm 1 m/s 685 mmHg 81%
14:00 +27°C° 1.8 mm 1 m/s 684 mmHg 85%
15:00 +26°C° 1.8 mm 1 m/s 683 mmHg 90%
16:00 +25°C° 1.3 mm 1 m/s 683 mmHg 92%
17:00 +22°C° 1.3 mm 0 m/s 683 mmHg 94%
18:00 +21°C° 1.3 mm 0 m/s 683 mmHg 97%
19:00 +20°C° 0.9 mm 0 m/s 684 mmHg 96%
20:00 +22°C° 0.9 mm 1 m/s 684 mmHg 96%
21:00 +22°C° 0.9 mm 1 m/s 685 mmHg 95%
22:00 +22°C° 0.9 mm 1 m/s 685 mmHg 95%
23:00 +21°C° 0.9 mm 1 m/s 684 mmHg 95%

Amanhã, 2 Outubro, Sexta-feira

Tempo Temperatura Precipitação Vento Pressão Humidade
00:00 +21°C° 0.9 mm 1 m/s 684 mmHg 95%
01:00 +21°C° 0 mm 1 m/s 683 mmHg 94%
02:00 +21°C° 0 mm 1 m/s 683 mmHg 94%
03:00 +19°C° 0 mm 2 m/s 683 mmHg 94%
04:00 +19°C° 0 mm 2 m/s 683 mmHg 94%
05:00 +19°C° 0 mm 2 m/s 683 mmHg 94%
06:00 +19°C° 0 mm 2 m/s 683 mmHg 93%
07:00 +22°C° 0 mm 1 m/s 684 mmHg 88%
08:00 +24°C° 0 mm 1 m/s 684 mmHg 84%
09:00 +26°C° 0 mm 1 m/s 685 mmHg 79%
10:00 +26°C° 0.7 mm 1 m/s 685 mmHg 80%
11:00 +27°C° 0.7 mm 1 m/s 684 mmHg 81%
12:00 +27°C° 0.7 mm 1 m/s 684 mmHg 82%
13:00 +27°C° 2.2 mm 1 m/s 683 mmHg 85%
14:00 +26°C° 2.2 mm 1 m/s 683 mmHg 88%
15:00 +26°C° 2.2 mm 1 m/s 682 mmHg 90%
16:00 +25°C° 1.6 mm 1 m/s 682 mmHg 92%
17:00 +22°C° 1.6 mm 0 m/s 682 mmHg 94%
18:00 +21°C° 1.6 mm 0 m/s 682 mmHg 96%
19:00 +20°C° 2 mm 0 m/s 683 mmHg 96%
20:00 +20°C° 2 mm 0 m/s 683 mmHg 96%
21:00 +22°C° 2 mm 1 m/s 684 mmHg 95%
22:00 +22°C° 1.2 mm 1 m/s 684 mmHg 95%
23:00 +22°C° 1.2 mm 1 m/s 684 mmHg 96%

Depois de amanhã, 3 Outubro, Sábado

Tempo Temperatura Precipitação Vento Pressão Humidade
00:00 +21°C° 1.2 mm 1 m/s 683 mmHg 96%
01:00 +21°C° 0.3 mm 1 m/s 683 mmHg 96%
02:00 +21°C° 0.3 mm 1 m/s 683 mmHg 95%
03:00 +21°C° 0.3 mm 1 m/s 682 mmHg 95%
04:00 +21°C° 0 mm 1 m/s 682 mmHg 94%
05:00 +20°C° 0 mm 2 m/s 683 mmHg 94%
06:00 +19°C° 0 mm 2 m/s 683 mmHg 93%
07:00 +22°C° 0 mm 1 m/s 684 mmHg 87%
08:00 +24°C° 0 mm 1 m/s 684 mmHg 81%
09:00 +26°C° 0 mm 1 m/s 685 mmHg 75%
10:00 +27°C° 0.3 mm 1 m/s 685 mmHg 76%
11:00 +27°C° 0.3 mm 1 m/s 684 mmHg 78%
12:00 +28°C° 0.3 mm 2 m/s 684 mmHg 79%
13:00 +27°C° 2 mm 1 m/s 683 mmHg 83%
14:00 +26°C° 2 mm 1 m/s 683 mmHg 88%
15:00 +26°C° 2 mm 1 m/s 682 mmHg 92%
16:00 +25°C° 2.2 mm 1 m/s 682 mmHg 94%
17:00 +24°C° 2.2 mm 1 m/s 682 mmHg 96%
18:00 +21°C° 2.2 mm 0 m/s 683 mmHg 98%
19:00 +20°C° 3 mm 0 m/s 683 mmHg 98%
20:00 +20°C° 3 mm 0 m/s 684 mmHg 98%
21:00 +20°C° 3 mm 0 m/s 685 mmHg 98%
22:00 +20°C° 2.9 mm 0 m/s 684 mmHg 98%
23:00 +22°C° 2.9 mm 1 m/s 684 mmHg 98%

4 Outubro, Domingo

Tempo Temperatura Precipitação Vento Pressão Humidade
00:00 +22°C° 2.9 mm 1 m/s 684 mmHg 98%
01:00 +22°C° 1.1 mm 1 m/s 684 mmHg 98%
02:00 +21°C° 1.1 mm 1 m/s 684 mmHg 98%
03:00 +21°C° 1.1 mm 1 m/s 684 mmHg 97%
04:00 +21°C° 0.4 mm 1 m/s 684 mmHg 97%
05:00 +21°C° 0.4 mm 1 m/s 684 mmHg 96%
06:00 +21°C° 0.4 mm 1 m/s 684 mmHg 96%
07:00 +22°C° 0 mm 1 m/s 685 mmHg 93%
08:00 +23°C° 0 mm 1 m/s 685 mmHg 89%
09:00 +24°C° 0 mm 1 m/s 686 mmHg 86%
10:00 +25°C° 0.4 mm 1 m/s 686 mmHg 87%
11:00 +25°C° 0.4 mm 1 m/s 685 mmHg 87%
12:00 +25°C° 0.4 mm 1 m/s 685 mmHg 87%
13:00 +25°C° 0.9 mm 1 m/s 685 mmHg 88%
14:00 +25°C° 0.9 mm 1 m/s 684 mmHg 89%
15:00 +25°C° 0.9 mm 1 m/s 683 mmHg 89%
16:00 +24°C° 1.2 mm 1 m/s 684 mmHg 92%
17:00 +23°C° 1.2 mm 1 m/s 684 mmHg 95%
18:00 +22°C° 1.2 mm 1 m/s 684 mmHg 97%
19:00 +22°C° 2.5 mm 1 m/s 685 mmHg 97%
20:00 +22°C° 2.5 mm 1 m/s 685 mmHg 97%
21:00 +21°C° 2.5 mm 1 m/s 685 mmHg 97%
22:00 +21°C° 0.7 mm 1 m/s 685 mmHg 96%
23:00 +21°C° 0.7 mm 1 m/s 685 mmHg 96%

5 Outubro, Segunda-feira

Tempo Temperatura Precipitação Vento Pressão Humidade
00:00 +20°C° 0.7 mm 1 m/s 685 mmHg 95%
01:00 +20°C° 0.4 mm 1 m/s 684 mmHg 93%
02:00 +19°C° 0.4 mm 2 m/s 684 mmHg 91%
03:00 +18°C° 0.4 mm 2 m/s 684 mmHg 89%
04:00 +18°C° 0.1 mm 2 m/s 684 mmHg 90%
05:00 +18°C° 0.1 mm 2 m/s 684 mmHg 91%
06:00 +18°C° 0.1 mm 2 m/s 684 mmHg 92%
07:00 +19°C° 0 mm 2 m/s 685 mmHg 87%
08:00 +21°C° 0 mm 2 m/s 685 mmHg 82%
09:00 +23°C° 0 mm 1 m/s 686 mmHg 77%
10:00 +23°C° 0.1 mm 1 m/s 685 mmHg 77%
11:00 +24°C° 0.1 mm 1 m/s 685 mmHg 78%
12:00 +24°C° 0.1 mm 1 m/s 685 mmHg 78%
13:00 +24°C° 0 mm 1 m/s 684 mmHg 78%
14:00 +24°C° 0 mm 1 m/s 684 mmHg 79%
15:00 +22°C° 0 mm 0 m/s 683 mmHg 80%
16:00 +24°C° 0 mm 1 m/s 683 mmHg 80%
17:00 +23°C° 0 mm 1 m/s 684 mmHg 81%
18:00 +23°C° 0 mm 1 m/s 684 mmHg 82%
19:00 +22°C° 0 mm 1 m/s 684 mmHg 82%
20:00 +22°C° 0 mm 1 m/s 685 mmHg 83%
21:00 +22°C° 0 mm 1 m/s 685 mmHg 83%
22:00 +22°C° 0 mm 1 m/s 685 mmHg 85%
23:00 +22°C° 0 mm 1 m/s 685 mmHg 87%

6 Outubro, Terça-feira

Tempo Temperatura Precipitação Vento Pressão Humidade
00:00 +21°C° 0 mm 1 m/s 685 mmHg 88%
01:00 +21°C° 0 mm 1 m/s 684 mmHg 88%
02:00 +21°C° 0 mm 1 m/s 684 mmHg 88%
03:00 +21°C° 0 mm 1 m/s 684 mmHg 88%
04:00 +21°C° 0 mm 1 m/s 684 mmHg 88%
05:00 +21°C° 0 mm 1 m/s 684 mmHg 87%
06:00 +21°C° 0 mm 1 m/s 684 mmHg 87%
07:00 +23°C° 0 mm 1 m/s 685 mmHg 83%
08:00 +24°C° 0 mm 1 m/s 685 mmHg 78%
09:00 +26°C° 0 mm 1 m/s 686 mmHg 74%
10:00 +26°C° 0.5 mm 1 m/s 686 mmHg 76%
11:00 +27°C° 0.5 mm 1 m/s 685 mmHg 78%
12:00 +27°C° 0.5 mm 1 m/s 685 mmHg 80%
13:00 +27°C° 1.8 mm 1 m/s 684 mmHg 84%
14:00 +26°C° 1.8 mm 1 m/s 684 mmHg 88%
15:00 +25°C° 1.8 mm 1 m/s 683 mmHg 92%
16:00 +22°C° 1.1 mm 0 m/s 683 mmHg 93%
17:00 +22°C° 1.1 mm 0 m/s 683 mmHg 95%
18:00 +21°C° 1.1 mm 0 m/s 684 mmHg 97%
19:00 +20°C° 1.1 mm 0 m/s 684 mmHg 96%
20:00 +20°C° 1.1 mm 0 m/s 685 mmHg 96%
21:00 +22°C° 1.1 mm 1 m/s 685 mmHg 95%
22:00 +22°C° 0.4 mm 1 m/s 685 mmHg 95%
23:00 +22°C° 0.4 mm 1 m/s 685 mmHg 95%
Mostrar mais